When you browse on this site, cookies collect data to enhance your experience and personalize the content and advertising you see.
Visit our Privacy Policy to learn more. By continuing to use the site, you agree to this use of cookies and data.

Meteo pe oră la Dziedzinek

Astăzi, 26 Septembrie, Sâmbătă

Timp Temperatura Precipitaţii Vânt Presiune Umiditate
00:00 +15°C° 0 mm 2 m/s 735 mmHg 91%
01:00 +15°C° 0 mm 2 m/s 734 mmHg 91%
02:00 +15°C° 0 mm 2 m/s 734 mmHg 92%
03:00 +14°C° 0 mm 3 m/s 734 mmHg 93%
04:00 +14°C° 0 mm 3 m/s 734 mmHg 94%
05:00 +14°C° 0.6 mm 3 m/s 733 mmHg 95%
06:00 +14°C° 0.6 mm 4 m/s 733 mmHg 96%
07:00 +15°C° 0.6 mm 4 m/s 733 mmHg 96%
08:00 +15°C° 1.1 mm 4 m/s 733 mmHg 94%
09:00 +16°C° 1.1 mm 5 m/s 733 mmHg 92%
10:00 +16°C° 1.1 mm 5 m/s 733 mmHg 90%
11:00 +19°C° 0.1 mm 6 m/s 732 mmHg 83%
12:00 +20°C° 0.1 mm 6 m/s 732 mmHg 75%
13:00 +21°C° 0.1 mm 6 m/s 732 mmHg 68%
14:00 +20°C° 0.2 mm 6 m/s 732 mmHg 72%
15:00 +20°C° 0.2 mm 5 m/s 732 mmHg 76%
16:00 +19°C° 0.2 mm 5 m/s 732 mmHg 81%
17:00 +18°C° 0.1 mm 4 m/s 733 mmHg 85%
18:00 +17°C° 0.1 mm 4 m/s 733 mmHg 89%
19:00 +17°C° 0.1 mm 3 m/s 734 mmHg 92%
20:00 +16°C° 0 mm 3 m/s 734 mmHg 91%
21:00 +16°C° 0 mm 2 m/s 735 mmHg 91%
22:00 +15°C° 0 mm 2 m/s 736 mmHg 90%
23:00 +15°C° 0.1 mm 2 m/s 736 mmHg 88%

Mâine, 27 Septembrie, Duminică

Timp Temperatura Precipitaţii Vânt Presiune Umiditate
00:00 +14°C° 0.1 mm 1 m/s 736 mmHg 87%
01:00 +14°C° 0.1 mm 1 m/s 736 mmHg 85%
02:00 +14°C° 0.3 mm 1 m/s 736 mmHg 87%
03:00 +14°C° 0.3 mm 2 m/s 736 mmHg 89%
04:00 +13°C° 0.3 mm 3 m/s 735 mmHg 91%
05:00 +14°C° 0.1 mm 3 m/s 735 mmHg 88%
06:00 +15°C° 0.1 mm 4 m/s 736 mmHg 85%
07:00 +15°C° 0.1 mm 4 m/s 736 mmHg 82%
08:00 +16°C° 0.1 mm 5 m/s 736 mmHg 80%
09:00 +17°C° 0.1 mm 5 m/s 736 mmHg 78%
10:00 +17°C° 0.1 mm 5 m/s 736 mmHg 76%
11:00 +17°C° 0.1 mm 5 m/s 736 mmHg 76%
12:00 +17°C° 0.1 mm 5 m/s 737 mmHg 76%
13:00 +18°C° 0.1 mm 4 m/s 737 mmHg 76%
14:00 +17°C° 0.4 mm 4 m/s 737 mmHg 78%
15:00 +17°C° 0.4 mm 4 m/s 737 mmHg 80%
16:00 +15°C° 0.4 mm 4 m/s 737 mmHg 82%
17:00 +14°C° 0.5 mm 3 m/s 738 mmHg 85%
18:00 +13°C° 0.5 mm 3 m/s 738 mmHg 88%
19:00 +12°C° 0.5 mm 3 m/s 739 mmHg 91%
20:00 +12°C° 0.1 mm 3 m/s 739 mmHg 91%
21:00 +11°C° 0.1 mm 3 m/s 740 mmHg 92%
22:00 +11°C° 0.1 mm 3 m/s 740 mmHg 92%
23:00 +11°C° 0.1 mm 4 m/s 740 mmHg 91%

Poimâine, 28 Septembrie, Luni

Timp Temperatura Precipitaţii Vânt Presiune Umiditate
00:00 +10°C° 0.1 mm 4 m/s 741 mmHg 91%
01:00 +10°C° 0.1 mm 4 m/s 741 mmHg 90%
02:00 +10°C° 0 mm 4 m/s 741 mmHg 91%
03:00 +10°C° 0 mm 4 m/s 741 mmHg 91%
04:00 +10°C° 0 mm 3 m/s 742 mmHg 91%
05:00 +10°C° 0.3 mm 4 m/s 742 mmHg 90%
06:00 +10°C° 0.3 mm 4 m/s 742 mmHg 89%
07:00 +9°C° 0.3 mm 5 m/s 743 mmHg 89%
08:00 +10°C° 0.1 mm 5 m/s 743 mmHg 85%
09:00 +10°C° 0.1 mm 5 m/s 743 mmHg 81%
10:00 +12°C° 0.1 mm 5 m/s 744 mmHg 78%
11:00 +13°C° 0 mm 5 m/s 744 mmHg 72%
12:00 +14°C° 0 mm 5 m/s 744 mmHg 66%
13:00 +15°C° 0 mm 5 m/s 744 mmHg 60%
14:00 +15°C° 0.1 mm 5 m/s 744 mmHg 60%
15:00 +15°C° 0.1 mm 4 m/s 745 mmHg 59%
16:00 +16°C° 0.1 mm 3 m/s 745 mmHg 58%
17:00 +14°C° 0 mm 4 m/s 745 mmHg 65%
18:00 +12°C° 0 mm 4 m/s 745 mmHg 72%
19:00 +10°C° 0 mm 5 m/s 745 mmHg 78%
20:00 +11°C° 0 mm 4 m/s 745 mmHg 82%
21:00 +10°C° 0 mm 3 m/s 745 mmHg 85%
22:00 +10°C° 0 mm 2 m/s 745 mmHg 89%
23:00 +9°C° 0 mm 2 m/s 745 mmHg 90%

29 Septembrie, Marţi

Timp Temperatura Precipitaţii Vânt Presiune Umiditate
00:00 +9°C° 0 mm 2 m/s 745 mmHg 92%
01:00 +10°C° 0 mm 1 m/s 745 mmHg 94%
02:00 +10°C° 0 mm 1 m/s 745 mmHg 94%
03:00 +10°C° 0 mm 1 m/s 745 mmHg 95%
04:00 +8°C° 0 mm 0 m/s 745 mmHg 95%
05:00 +9°C° 0 mm 0 m/s 745 mmHg 94%
06:00 +10°C° 0 mm 1 m/s 745 mmHg 93%
07:00 +10°C° 0 mm 1 m/s 745 mmHg 91%
08:00 +12°C° 0 mm 1 m/s 745 mmHg 82%
09:00 +14°C° 0 mm 1 m/s 745 mmHg 73%
10:00 +15°C° 0 mm 1 m/s 746 mmHg 64%
11:00 +16°C° 0 mm 1 m/s 746 mmHg 60%
12:00 +17°C° 0 mm 2 m/s 746 mmHg 55%
13:00 +18°C° 0 mm 2 m/s 746 mmHg 51%
14:00 +17°C° 0.1 mm 2 m/s 746 mmHg 53%
15:00 +17°C° 0.1 mm 2 m/s 746 mmHg 56%
16:00 +17°C° 0.1 mm 3 m/s 746 mmHg 58%
17:00 +16°C° 0.1 mm 3 m/s 746 mmHg 64%
18:00 +14°C° 0.1 mm 3 m/s 746 mmHg 69%
19:00 +12°C° 0.1 mm 3 m/s 746 mmHg 75%
20:00 +12°C° 0 mm 3 m/s 746 mmHg 79%
21:00 +11°C° 0 mm 3 m/s 745 mmHg 82%
22:00 +10°C° 0 mm 3 m/s 745 mmHg 86%
23:00 +10°C° 0.1 mm 3 m/s 745 mmHg 87%

30 Septembrie, Miercuri

Timp Temperatura Precipitaţii Vânt Presiune Umiditate
00:00 +11°C° 0.1 mm 4 m/s 745 mmHg 89%
01:00 +11°C° 0.1 mm 4 m/s 745 mmHg 90%
02:00 +11°C° 0.6 mm 4 m/s 745 mmHg 90%
03:00 +12°C° 0.6 mm 4 m/s 744 mmHg 91%
04:00 +12°C° 0.6 mm 5 m/s 744 mmHg 91%
05:00 +12°C° 0.1 mm 5 m/s 744 mmHg 91%
06:00 +13°C° 0.1 mm 4 m/s 744 mmHg 91%
07:00 +13°C° 0.1 mm 4 m/s 744 mmHg 91%
08:00 +13°C° 0 mm 4 m/s 744 mmHg 88%
09:00 +14°C° 0 mm 4 m/s 744 mmHg 84%
10:00 +15°C° 0 mm 4 m/s 744 mmHg 81%
11:00 +15°C° 0.2 mm 5 m/s 744 mmHg 80%
12:00 +15°C° 0.2 mm 5 m/s 744 mmHg 80%
13:00 +16°C° 0.2 mm 5 m/s 744 mmHg 79%
14:00 +15°C° 0.2 mm 5 m/s 744 mmHg 80%
15:00 +15°C° 0.2 mm 5 m/s 743 mmHg 81%
16:00 +15°C° 0.2 mm 5 m/s 743 mmHg 82%
17:00 +14°C° 0.4 mm 5 m/s 743 mmHg 84%
18:00 +14°C° 0.4 mm 5 m/s 743 mmHg 86%
19:00 +13°C° 0.4 mm 5 m/s 743 mmHg 88%
20:00 +13°C° 0.3 mm 5 m/s 743 mmHg 89%
21:00 +13°C° 0.3 mm 5 m/s 743 mmHg 89%
22:00 +13°C° 0.3 mm 4 m/s 743 mmHg 89%
23:00 +12°C° 0.2 mm 4 m/s 743 mmHg 90%

1 Octombrie, Joi

Timp Temperatura Precipitaţii Vânt Presiune Umiditate
00:00 +12°C° 0.2 mm 4 m/s 743 mmHg 91%
01:00 +12°C° 0.2 mm 3 m/s 742 mmHg 92%
02:00 +12°C° 0.2 mm 3 m/s 742 mmHg 93%
03:00 +12°C° 0.2 mm 3 m/s 742 mmHg 93%
04:00 +12°C° 0.2 mm 3 m/s 742 mmHg 94%
05:00 +11°C° 0.1 mm 3 m/s 742 mmHg 93%
06:00 +11°C° 0.1 mm 3 m/s 742 mmHg 93%
07:00 +11°C° 0.1 mm 3 m/s 742 mmHg 93%
08:00 +12°C° 0 mm 3 m/s 742 mmHg 88%
09:00 +13°C° 0 mm 3 m/s 742 mmHg 82%
10:00 +16°C° 0 mm 3 m/s 742 mmHg 77%
11:00 +16°C° 0 mm 3 m/s 742 mmHg 72%
12:00 +17°C° 0 mm 3 m/s 742 mmHg 66%
13:00 +18°C° 0 mm 3 m/s 742 mmHg 61%
14:00 +18°C° 0 mm 3 m/s 742 mmHg 62%
15:00 +18°C° 0 mm 3 m/s 742 mmHg 64%
16:00 +18°C° 0 mm 2 m/s 741 mmHg 66%
17:00 +16°C° 0 mm 2 m/s 742 mmHg 71%
18:00 +15°C° 0 mm 2 m/s 742 mmHg 76%
19:00 +14°C° 0 mm 2 m/s 742 mmHg 81%
20:00 +14°C° 0 mm 2 m/s 742 mmHg 82%
21:00 +12°C° 0 mm 3 m/s 742 mmHg 83%
22:00 +12°C° 0 mm 3 m/s 742 mmHg 84%
23:00 +12°C° 0 mm 3 m/s 742 mmHg 85%
Arată mai mult